CZ-4C DEB, 40342

Orbit data source: Space-Track

CZ-4C DEB, 40342 is space debris in LEO originally from a launch on Wed, 10 Dec 2014 UTC launched from the Jiuquan Satellite Launch Center, China (JSC). Debris objects in space refer to the collection of defunct objects orbiting the Earth. Examples of debris include non-operational satellites, rocket bodies, and fragments generated from explosions, collisions, or faulty payload assembly.

Loading next visibility...
Identifier
40342, 2014-080E
Orbit
LEO
Country
Flag of CNCN / PRC
Related business
Manufacturer
CAST
Mission
Spacecraft
Bus & Motor
Unknown
Mass
Unknown
Launch date (UTC)
2014-12-10 (11 years ago)
Launch vehicle
Unknown
Launch site
Jiuquan Satellite Launch Center, China (JSC)
Object type
Payload
Rocket body
Debris
Shape & HBR
Unknown shape, 2.3 m
Radar Cross Section
Large (>1 m²)

Expand to show TLE details & history
Last TLE update: 13 hours ago

TLE from 13 hours ago
0 CZ-4C DEB
1 40342U 14080E   25348.28243027  .00000055  00000-0  16781-3 0  9992
2 40342  63.3906  88.2049 0361058   9.4903 351.2708 13.44586646540418
Epoch: 2025-12-14T06:46Z
TLE epoch observation values (Epoch: 2025-12-14T06:46:41.975Z)
Latitude
-0.00002°
Longitude
-96.66759°
Altitude
827.621 km
Speed
7.571 km/s
True Right ascension
05h 52m 49s
True Declination
0° 00' 00"
Sunlit
Object was in full shadow at epoch
Visualization orbit readout
Latitude
Unknown
Longitude
Unknown
Altitude
Unknown
Speed
Unknown
Apparent Right ascension
Unknown
Apparent Declination
Unknown
Sunlit
N/A
Visualization observer readout
Local Sidereal Time
18:19:03
Azimuth
Unknown
Elevation
Unknown
Doppler factor
Unknown
Orbital elements
Apogee altitude
1,360.753 km
Perigee altitude
821.389 km
Semi-major axis
7,469.208 km
Eccentricity
0.03611
Inclination
63.3906°
RAAN
88.2049°
Arg. of periapsis
9.4903°
True anomaly
350.61364°
Mean anomaly
351.2708°
Eccentric anomaly
350.94523°
Mean motion
3.36226 °/min
Orbital period
107.07 mins
BSTAR
0.00016781
Loading maneuver chart data...
Computing Atmospheric mass density...
Loading historical data...
Loading historical data...
Loading historical data...
Loading historical data...
Loading historical data...
Loading historical data...
Loading historical data...

Documentation

Showing up to 5 results
|